This demonstration page uses our WeatherBlox Daily Observations layout. Learn more.

Left ArrowRight Arrow

40.92945, -100.16068

Hourly Observations for April 5, 2015

Temp ( °F °C ) Dew Point ( °F °C ) Humidity (%) Winds ( mph kmh ) Pressure ( in mb ) Visibility ( mi km ) Precip ( " mm )
12:15 am 00:15 Clear 48 9 22 -5.6 35 35 S 13 20 29.94 1014 10 16 N/A
12:35 am 00:35 Clear 48 8.9 21 -6 35 35 S 14 22 29.94 1014 10 16 N/A
12:55 am 00:55 Clear 47 8.2 21 -5.9 37 37 S 13 20 29.94 1014 10 16 N/A
1:15 am 01:15 Clear 46 8 21 -6 37 37 S 14 22 29.94 1014 10 16 N/A
1:35 am 01:35 Clear 46 8 21 -6.2 36 36 S 13 20 29.94 1014 10 16 N/A
1:55 am 01:55 Clear 46 7.9 20 -6.5 36 36 SSE 10 17 29.94 1014 10 16 N/A
2:15 am 02:15 Clear 46 7.5 21 -6.3 37 37 SSE 10 17 29.91 1013 10 16 N/A
2:35 am 02:35 Clear 46 7.5 20 -6.5 37 37 SSE 10 17 29.91 1013 10 16 N/A
2:55 am 02:55 Clear 46 7.6 20 -6.6 36 36 SSE 14 22 29.91 1013 10 16 N/A
3:15 am 03:15 Clear 46 7.5 20 -6.5 37 37 S 14 22 29.88 1012 10 16 N/A
3:35 am 03:35 Clear 44 6.4 21 -6.1 41 41 SSE 9 15 29.88 1012 10 16 N/A
3:55 am 03:55 Clear 44 6.4 21 -6 41 41 SE 7 11 29.88 1012 10 16 N/A
4:15 am 04:15 Clear 43 6.3 21 -6 41 41 E 6 9 29.88 1012 10 16 N/A
4:35 am 04:35 Clear 44 6.5 21 -5.9 41 41 SSE 13 20 29.85 1011 10 16 N/A
4:55 am 04:55 Clear 43 6.1 22 -5.6 43 43 S 12 19 29.85 1011 10 16 N/A
5:15 am 05:15 Clear 41 4.8 22 -5.3 48 48 SSE 8 13 29.88 1012 10 16 N/A
5:35 am 05:35 Clear 39 3.7 23 -5.1 53 53 SSE 9 15 29.88 1012 10 16 N/A
5:55 am 05:55 Clear 38 3.3 23 -5.1 55 55 S 6 9 29.88 1012 10 16 N/A
6:15 am 06:15 Clear 37 3 24 -4.7 57 57 S 9 15 29.88 1012 10 16 N/A
6:35 am 06:35 Clear 39 3.8 24 -4.5 55 55 S 9 15 29.88 1012 10 16 N/A
6:55 am 06:55 Clear 40 4.2 24 -4.5 54 54 SSE 5 7 29.88 1012 10 16 N/A
7:15 am 07:15 Clear 40 4.6 24 -4.5 52 52 S 7 11 29.88 1012 10 16 N/A
7:35 am 07:35 Sunny 39 3.8 25 -4 57 57 SSE 5 7 29.88 1012 10 16 N/A
7:55 am 07:55 Sunny 40 4.4 26 -3.3 58 58 S 8 13 29.88 1012 10 16 N/A
8:15 am 08:15 Sunny 44 6.5 27 -2.9 51 51 S 8 13 29.85 1011 10 16 N/A
8:35 am 08:35 Sunny 46 7.6 27 -3 47 47 S 6 9 29.85 1011 10 16 N/A
8:55 am 08:55 Sunny 47 8.6 27 -2.7 45 45 S 10 17 29.83 1010 10 16 N/A
9:15 am 09:15 Sunny 49 9.6 28 -2.4 43 43 S 10 17 29.83 1010 10 16 N/A
9:35 am 09:35 Sunny 51 10.6 28 -2 42 42 SSW 10 17 29.83 1010 10 16 N/A
9:55 am 09:55 Sunny 52 11 28 -2.2 40 40 S 8 13 29.80 1009 10 16 N/A
10:15 am 10:15 Sunny 54 12 28 -2.3 37 37 SSW 9 15 29.77 1008 10 16 N/A
10:35 am 10:35 Sunny 55 12.6 28 -2.2 36 36 S 8 13 29.77 1008 10 16 N/A
10:55 am 10:55 Sunny 56 13.4 28 -2.1 34 34 SSE 5 7 29.77 1008 10 16 N/A
11:15 am 11:15 Sunny 58 14.2 29 -1.8 33 33 SSE 8 13 29.77 1008 10 16 N/A
11:35 am 11:35 Sunny 59 15 29 -1.8 32 32 SSE 5 7 29.71 1006 10 16 N/A
11:55 am 11:55 Sunny 61 15.9 30 -1.3 31 31 SSE 8 13 29.71 1006 10 16 N/A
12:15 pm 12:15 Sunny 62 16.8 30 -1.2 29 29 SE 9 15 29.71 1006 10 16 N/A
12:35 pm 12:35 Sunny 63 17.3 30 -1.1 29 29 SSE 9 15 29.71 1006 10 16 N/A
12:55 pm 12:55 Sunny 63 17.3 30 -1 29 29 SSE 10 17 29.71 1006 10 16 N/A
1:15 pm 13:15 Sunny 64 17.5 31 -0.7 29 29 SE 10 17 29.68 1005 10 16 N/A
1:35 pm 13:35 Sunny 65 18.6 31 -0.3 28 28 S 14 22 29.68 1005 10 16 N/A
1:55 pm 13:55 Sunny 66 19 32 undefined 28 28 S 16 26 29.65 1004 10 16 N/A
2:15 pm 14:15 Sunny 67 19.7 32 undefined 27 27 SSE 16 26 29.65 1004 10 16 N/A
2:35 pm 14:35 Sunny 68 20 32 0.2 27 27 S 15 24 29.65 1004 10 16 N/A
2:55 pm 14:55 Sunny 69 20.6 32 0.2 26 26 S 13 20 29.62 1003 10 16 N/A
3:15 pm 15:15 Sunny 70 21 32 0.2 25 25 SSE 14 22 29.59 1002 10 16 N/A
3:35 pm 15:35 Sunny 70 21 32 0.1 25 25 SSE 15 24 29.59 1002 10 16 N/A
3:55 pm 15:55 Sunny 70 21 32 0.2 25 25 SSE 12 19 29.59 1002 10 16 N/A
4:15 pm 16:15 Sunny 71 21.4 32 0.1 24 24 SSE 13 20 29.59 1002 10 16 N/A
4:35 pm 16:35 Sunny 71 21.6 33 0.4 24 24 S 13 20 29.59 1002 10 16 N/A
4:55 pm 16:55 Sunny 71 21.5 33 0.4 25 25 SSE 12 19 29.59 1002 10 16 N/A
5:15 pm 17:15 Sunny 71 21.7 33 0.7 25 25 S 13 20 29.59 1002 10 16 N/A
5:35 pm 17:35 Sunny 71 21.7 33 0.3 24 24 SSE 9 15 29.59 1002 10 16 N/A
5:55 pm 17:55 Sunny 71 21.8 33 0.7 25 25 S 14 22 29.59 1002 10 16 N/A
6:15 pm 18:15 Sunny 71 21.6 33 0.6 25 25 S 13 20 29.59 1002 10 16 N/A
6:35 pm 18:35 Sunny 71 21.6 33 0.6 25 25 S 12 19 29.59 1002 10 16 N/A
6:55 pm 18:55 Sunny 70 21.2 33 0.6 25 25 SSE 12 19 29.59 1002 10 16 N/A
7:15 pm 19:15 Sunny 69 20.6 33 0.6 26 26 SSE 14 22 29.59 1002 10 16 N/A
7:35 pm 19:35 Sunny 67 19.6 33 0.8 29 29 S 10 17 29.62 1003 10 16 N/A
7:55 pm 19:55 Sunny 64 17.8 34 1 32 32 SSE 7 11 29.62 1003 10 16 N/A
8:15 pm 20:15 Clear 62 16.9 33 0.5 33 33 SE 6 9 29.62 1003 10 16 N/A
8:35 pm 20:35 Clear 63 17 33 0.5 33 33 SE 6 9 29.62 1003 10 16 N/A
8:55 pm 20:55 Clear 61 16.1 33 0.5 35 35 SE 6 9 29.65 1004 10 16 N/A
9:15 pm 21:15 Clear 53 11.4 33 0.4 47 47 E 6 9 29.68 1005 10 16 N/A
9:35 pm 21:35 Clear 54 12.3 34 1.2 47 47 ESE 6 9 29.68 1005 10 16 N/A
9:55 pm 21:55 Clear 53 11.4 34 1.2 50 50 E 5 7 29.68 1005 10 16 N/A
10:15 pm 22:15 Clear 51 10.5 35 1.5 54 54 ESE 7 11 29.68 1005 10 16 N/A
10:35 pm 22:35 Clear 54 12.3 35 1.7 49 49 SE 8 13 29.68 1005 10 16 N/A
10:55 pm 22:55 Clear 56 13.2 36 2.1 47 47 SE 13 20 29.68 1005 10 16 N/A
11:15 pm 23:15 Clear 56 13.1 39 3.8 54 54 SE 10 17 29.68 1005 10 16 N/A
11:35 pm 23:35 Clear 53 11.9 41 4.9 63 63 ESE 13 20 29.68 1005 10 16 N/A
11:55 pm 23:55 Clear 53 11.9 44 6.6 70 70 SE 12 19 29.68 1005 10 16 N/A

Powered by AerisWeather